Tacoma Narrows, WA
on Saturday, February 9, 2013

Saturday
Previous Day Next Day
Daily Summary
 ActualAverageRecord
Temperature
Mean Temperature °F °F  
Max Temperature 46°F 46°F 55°F (2007)
Min Temperature 37°F 36°F 30°F (2011)
Degree Days
Heating Degree Days 24    
Moisture
Dew Point 37°F   
Average Humidity 83    
Maximum Humidity 93    
Minimum Humidity 61    
Precipitation
Precipitation 0.00 in in in ()
Wind
Wind Speed 1 mph   
Max Wind Speed 6 mph   
Max Gust Speed mph   
Visibility 10 miles   
Events     
Averages and records for this station are not official NWS values.
Key: T is trace of precipitation, MM is missing value
Source: NWS Daily Summary
Seasonal Weather Averages
Time(PST)TemperatureDew PointHumidity Pressure Visibility Wind DirectionWind SpeedGust SpeedPrecipitationEvents Conditions
12:53 AM 41.0°F 35.1°F 79% 30.28 in 10.0 miles Calm Calm - N/A   Overcast
1:53 AM 39.9°F 35.1°F 83% 30.29 in 10.0 miles Calm Calm - N/A   Overcast
2:53 AM 39.0°F 36.0°F 89% 30.29 in 10.0 miles Calm Calm - N/A   Overcast
3:53 AM 39.0°F 36.0°F 89% 30.28 in 10.0 miles Calm Calm - N/A   Overcast
4:53 AM 37.9°F 36.0°F 93% 30.28 in 10.0 miles Calm Calm - N/A   Overcast
5:53 AM 39.0°F 36.0°F 89% 30.28 in 10.0 miles Calm Calm - N/A   Overcast
6:07 AM 39.2°F 37.4°F 93% 30.27 in 10.0 miles Calm Calm - N/A   Overcast
6:53 AM 39.0°F 37.0°F 93% 30.28 in 10.0 miles Calm Calm - N/A   Overcast
7:03 AM 39.2°F 37.4°F 93% 30.27 in 10.0 miles Calm Calm - N/A   Overcast
7:53 AM 39.0°F 37.0°F 93% 30.28 in 9.0 miles Calm Calm - N/A   Overcast
8:53 AM 39.9°F 37.0°F 89% 30.28 in 10.0 miles Calm Calm - N/A   Overcast
9:00 AM 39.2°F 37.4°F 93% 30.27 in 10.0 miles Calm Calm - N/A   Overcast
9:02 AM 39.2°F 37.4°F 93% 30.27 in 10.0 miles Calm Calm - N/A   Overcast
9:53 AM 42.1°F 37.0°F 82% 30.29 in 10.0 miles Calm Calm - N/A   Overcast
10:53 AM 44.1°F 37.0°F 76% 30.30 in 10.0 miles Calm Calm - N/A   Mostly Cloudy
11:53 AM 43.0°F 36.0°F 76% 30.29 in 10.0 miles South 3.5 mph - N/A   Mostly Cloudy
12:53 PM 44.1°F 36.0°F 73% 30.28 in 10.0 miles Variable 3.5 mph - N/A   Overcast
1:53 PM 44.1°F 34.0°F 68% 30.27 in 10.0 miles Calm Calm - N/A   Overcast
2:53 PM 45.0°F 35.1°F 68% 30.27 in 10.0 miles South 3.5 mph - N/A   Mostly Cloudy
3:53 PM 46.0°F 33.1°F 61% 30.28 in 10.0 miles Calm Calm - N/A   Overcast
4:53 PM 45.0°F 33.1°F 63% 30.29 in 10.0 miles Calm Calm - N/A   Overcast
5:53 PM 44.1°F 36.0°F 73% 30.30 in 10.0 miles ENE 4.6 mph - N/A   Overcast
6:53 PM 43.0°F 37.0°F 80% 30.30 in 10.0 miles ENE 3.5 mph - N/A   Mostly Cloudy
7:26 PM 42.8°F 37.4°F 81% 30.29 in 10.0 miles NE 5.8 mph - N/A   Overcast
7:53 PM 42.1°F 39.0°F 89% 30.30 in 10.0 miles NE 5.8 mph - N/A   Mostly Cloudy
8:06 PM 42.8°F 39.2°F 87% 30.29 in 10.0 miles NE 5.8 mph - N/A   Mostly Cloudy
8:18 PM 42.8°F 39.2°F 87% 30.30 in 10.0 miles NE 4.6 mph - N/A   Mostly Cloudy
8:30 PM 42.8°F 39.2°F 87% 30.30 in 10.0 miles NE 3.5 mph - N/A   Mostly Cloudy
8:53 PM 42.1°F 37.9°F 85% 30.31 in 10.0 miles NNE 3.5 mph - N/A   Mostly Cloudy
9:53 PM 41.0°F 37.9°F 89% 30.33 in 10.0 miles Calm Calm - N/A   Mostly Cloudy
10:01 PM 41.0°F 37.4°F 87% 30.32 in 10.0 miles Calm Calm - N/A   Overcast
10:53 PM 41.0°F 37.9°F 89% 30.34 in 10.0 miles NNW 4.6 mph - N/A   Overcast
11:43 PM 42.8°F 37.4°F 81% 30.33 in 10.0 miles NNE 3.5 mph - N/A   Overcast
11:53 PM 42.1°F 37.9°F 85% 30.34 in 10.0 miles Calm Calm - N/A   Overcast
Moon Phase
Feb. 09 Feb. 10 Feb. 17 Feb. 25 Mar. 04
Sunrise:07:24 AM (PST) Moon Rise:06:38 AM (PST)2/9
Sunset:05:25 PM (PST) Moon Set:05:17 PM (PST)2/9

Copyright © 2014 The Weather Underground, Inc.